This demonstration page uses our WeatherBlox Daily Observations layout. Learn more.

Left ArrowRight Arrow

Hourly Observations for July 15, 2017

Temp ( °F °C ) Dew Point ( °F °C ) Humidity (%) Winds ( mph kmh ) Pressure ( in mb ) Visibility ( mi km ) Precip ( " mm )
12:53 am 00:53 Clear 76 24.4 52 11.1 43 43 Calm 29.94 1014 10 16 0.00 0.00
1:53 am 01:53 Clear 75 23.9 51 10.6 43 43 Calm 29.95 1014 10 16 0.00 0.00
2:53 am 02:53 Clear 74 23.3 52 11.1 46 46 NNW 5 7 29.95 1014 10 16 0.00 0.00
3:53 am 03:53 Clear 73 22.8 53 11.7 50 50 Calm 29.95 1014 10 16 0.00 0.00
4:53 am 04:53 Clear 72 22.2 53 11.7 52 52 Calm 29.96 1015 10 16 0.00 0.00
5:53 am 05:53 Sunny 71 21.7 55 12.8 57 57 N 3 6 29.97 1015 10 16 0.00 0.00
6:53 am 06:53 Sunny 72 22.2 56 13.3 57 57 NNW 5 7 29.98 1015 10 16 0.00 0.00
7:53 am 07:53 Sunny 77 25 56 13.3 48 48 Calm 29.98 1015 10 16 0.00 0.00
8:53 am 08:53 Sunny 84 28.9 51 10.6 32 32 NNE 3 6 29.97 1015 10 16 0.00 0.00
9:53 am 09:53 Sunny 88 31.1 51 10.6 28 28 VRB 5 7 29.97 1015 10 16 0.00 0.00
10:53 am 10:53 Sunny 93 33.9 50 10 23 23 N 5 7 29.97 1015 10 16 0.00 0.00
11:53 am 11:53 Sunny 97 36.1 50 10 20 20 SW 6 9 29.95 1014 10 16 0.00 0.00
12:53 pm 12:53 Sunny 98 36.7 48 8.9 18 18 Calm 29.94 1014 10 16 0.00 0.00
1:53 pm 13:53 Sunny 100 37.8 50 10 18 18 S 5 7 29.93 1013 10 16 0.00 0.00
2:53 pm 14:53 Sunny 103 39.4 40 4.4 11 11 SSW 9 15 29.90 1013 10 16 0.00 0.00
3:53 pm 15:53 Sunny 104 40 45 7.2 13 13 W 5 7 29.88 1012 10 16 0.00 0.00
4:53 pm 16:53 Sunny 105 40.6 43 6.1 12 12 VRB 3 6 29.86 1011 10 16 0.00 0.00
5:53 pm 17:53 Sunny 104 40 46 7.8 14 14 SW 8 13 29.85 1011 10 16 0.00 0.00
6:53 pm 18:53 Sunny 104 40 33 0.6 8 8 WNW 9 15 29.85 1011 10 16 0.00 0.00
7:53 pm 19:53 Sunny 100 37.8 31 -0.6 9 9 NW 8 13 29.86 1011 10 16 0.00 0.00
8:53 pm 20:53 Clear 94 34.4 34 1.1 12 12 WNW 5 7 29.86 1011 10 16 0.00 0.00
9:53 pm 21:53 Clear 87 30.6 37 2.8 17 17 Calm 29.88 1012 10 16 0.00 0.00
10:53 pm 22:53 Clear 86 30 40 4.4 20 20 SW 3 6 29.90 1013 10 16 0.00 0.00
11:53 pm 23:53 Clear 86 30 41 5 20 20 NW 6 9 29.91 1013 10 16 0.00 0.00

Powered by AerisWeather